Capo Bellavista, Italy

11:24 AM CET on February 25, 2018 (GMT +0100)
Capo Bellavista

Weather History for LIEB - December, 2012

Change the Weather History Date:

Monday, December 3, 2012

  Actual Average Record
Temperature  
Mean Temperature 55 °F -  
Max Temperature 60 °F 58 °F - ()
Min Temperature 50 °F 49 °F - ()
Degree Days  
Heating Degree Days 10    
Growing Degree Days 5 (Base 50)    
Moisture  
Dew Point 38 °F    
Average Humidity 56    
Maximum Humidity 77    
Minimum Humidity 36    
Precipitation  
Precipitation 0.00 in 0.09 in - ()
Sea Level Pressure  
Sea Level Pressure 29.99 in    
Wind  
Wind Speed 19 mph ()    
Max Wind Speed 39 mph    
Max Gust Speed 68 mph    
Visibility 7.7 miles    
Events      
T = Trace of Precipitation, MM = Missing Value Source: Averaged Metar Reports

Daily Weather History Graph

Daily Weather History Graph

Search for Another Location

Airport or City:

Trip Planner

Search our weather history database for the weather conditions in past years. The results will help you decide how hot, cold, wet, or windy it might be!

Date:

Astronomy

Dec. 03, 2012 Rise Set
Actual Time 7:25 AM CET 4:56 PM CET
Civil Twilight 6:55 AM CET 5:26 PM CET
Nautical Twilight 6:22 AM CET 5:59 PM CET
Astronomical Twilight 5:49 AM CET 6:32 PM CET
Moon 9:26 PM CET (12/3) 10:40 AM CET (12/3)
Length of Visible Light 10h 30m
Length of Day
9h 30m
Waning Gibbous, 80% of the Moon is Illuminated
Dec 3
Waning Gibbous
Dec 6
Last Quarter
Dec 13
New
Dec 20
First Quarter
Dec 28
Full

Hourly Weather History & Observations

Time (CET) Temp. Dew Point Humidity Pressure Visibility Wind Dir Wind Speed Gust Speed Precip Events Conditions
12:55 AM 51.8 °F 35.6 °F 54% 29.86 in - NW 34.5 mph 55.2 mph N/A   Clear
1:00 AM 51 °F 35 °F 42% 29.88 in 12 mi NW 34.5 mph - -   Scattered Clouds
1:55 AM 51.8 °F 33.8 °F 50% 29.86 in - WNW 28.8 mph 54.1 mph N/A   Clear
2:55 AM 53.6 °F 39.2 °F 58% 29.83 in 6.2 mi NW 32.2 mph 56.4 mph N/A   Partly Cloudy
3:55 AM 51.8 °F 35.6 °F 54% 29.86 in 6.2 mi NW 39.1 mph 67.9 mph N/A   Partly Cloudy
4:55 AM 50.0 °F 35.6 °F 58% 29.89 in - North 23.0 mph 34.5 mph N/A   Clear
5:55 AM 50.0 °F 35.6 °F 58% 29.89 in - NNW 23.0 mph - N/A   Clear
6:55 AM 50.0 °F 33.8 °F 54% 29.92 in 6.2 mi NNW 20.7 mph 34.5 mph N/A   Scattered Clouds
7:00 AM 50 °F 34 °F 42% 29.94 in 12 mi NNW 20.7 mph - -   Partly Cloudy
7:55 AM 50.0 °F 33.8 °F 54% 29.95 in 6.2 mi NNW 25.3 mph 38.0 mph N/A   Scattered Clouds
8:55 AM 50.0 °F 35.6 °F 58% 29.98 in 6.2 mi NNW 13.8 mph - N/A   Scattered Clouds
9:55 AM 50.0 °F 35.6 °F 58% 30.01 in 6.2 mi NW 21.9 mph 40.3 mph N/A   Scattered Clouds
10:55 AM 51.8 °F 35.6 °F 54% 30.06 in 6.2 mi NNW 26.5 mph 39.1 mph N/A   Scattered Clouds
11:55 AM 55.4 °F 37.4 °F 51% 30.06 in - NNW 20.7 mph 32.2 mph N/A   Clear
12:55 PM 57.2 °F 37.4 °F 48% 30.06 in - NNW 13.8 mph - N/A   Clear
1:00 PM 57 °F 37 °F 36% 30.07 in 12 mi NNW 13.8 mph - -  
1:55 PM 59.0 °F 39.2 °F 48% 30.06 in - NE 5.8 mph - N/A   Clear
2:55 PM 57.2 °F 39.2 °F 51% 30.04 in - ENE 4.6 mph - N/A   Clear
3:55 PM 59.0 °F 39.2 °F 48% 30.06 in - NW 8.1 mph - N/A   Clear
5:55 PM 55.4 °F 41.0 °F 58% 30.06 in 6.2 mi SW 5.8 mph - N/A   Scattered Clouds
6:55 PM 55.4 °F 42.8 °F 63% 30.09 in 6.2 mi SW 5.8 mph - N/A   Scattered Clouds
7:00 PM 55 °F 43 °F 53% 30.10 in 12 mi SW 5.8 mph - -   Partly Cloudy
7:55 PM 53.6 °F 41.0 °F 62% 30.06 in 6.2 mi South 4.6 mph - N/A   Scattered Clouds
8:55 PM 53.6 °F 44.6 °F 72% 30.06 in 6.2 mi South 6.9 mph - N/A   Mostly Cloudy
9:55 PM 53.6 °F 42.8 °F 67% 30.06 in 6.2 mi South 8.1 mph - N/A   Mostly Cloudy
10:55 PM 55.4 °F 48.2 °F 77% 30.06 in - South 4.6 mph - N/A   Clear
11:55 PM 53.6 °F 44.6 °F 72% 30.06 in - SE 6.9 mph - N/A   Clear